Location: Kopernik Observatory
(42.0014°N, 76.0372°W)
Time: 01:18:53
(UTC-04:00)

Daily predictions for brighter satellites

Satellite Brightness Start Highest point End
(mag) Time Altitude Azimuth Time Altitude Azimuth Time Altitude Azimuth
ATLAS 2AS CENTAUR R/B 4.1 02:33:48 39° NE 02:33:48 39° NE 02:38:31 10° NE
SL-16 R/B 4.4 02:35:42 24° NE 02:35:42 24° NE 02:39:07 10° N
Cosmos 2333 Rocket 4.2 03:05:33 10° N 03:10:07 24° NE 03:14:39 10° ESE
Cosmos 2237 Rocket 3.9 03:30:27 10° N 03:35:21 29° NE 03:40:12 10° ESE
Lacrosse 5 4.0 03:38:47 21° E 03:38:47 21° E 03:41:09 10° ENE
ATLAS 5 CENTAUR R/B 3.7 03:37:21 19° N 03:41:02 37° NE 03:46:52 10° ESE
Cosmos 2219 4.3 03:52:28 37° N 03:52:28 37° N 03:55:48 10° NNE
ARIANE 5 R/B 4.2 03:47:30 10° NNE 03:49:50 28° N 03:49:50 28° N
NOSS 3-4 (A) 4.0 04:00:48 52° SE 04:01:05 52° ESE 04:07:21 10° NE
NOSS 3-4 (C) 4.0 04:00:53 51° SE 04:01:11 52° ESE 04:07:27 10° NE
Gbstr 26 Del rocket 4.2 04:03:05 80° SSE 04:03:05 80° SSE 04:10:46 10° SE
Cosmos 2344 3.5 04:06:57 73° SW 04:07:53 88° WNW 04:16:41 10° NE
Cosmos 2227 Rocket 2.9 04:07:44 45° ESE 04:08:13 46° ESE 04:13:36 10° NE
RESURS DK-1 4.5 04:10:02 24° E 04:10:02 24° E 04:12:52 10° NE
CZ-2D R/B 3.1 04:04:34 10° N 04:07:50 39° N 04:07:50 39° N
Cosmos 2219 Rocket 4.3 04:08:24 10° NNW 04:20:32 - SSE 04:09:24 16° NNW
SL-16 R/B 3.9 04:20:48 25° NW 04:20:48 25° NW 04:23:22 10° NNW
Cosmos 2297 Rocket 3.3 04:15:57 32° SE 04:17:38 39° ESE 04:22:51 10° NE
ATLAS 2AS CENTAUR R/B 4.1 04:21:15 29° NW 04:22:26 30° NW 04:29:25 10° NNE
NOSS 0 Rocket 3.8 04:23:20 10° NNW 04:29:35 84° WSW 04:35:49 10° SSE
MOS 1-B 4.2 04:26:18 10° N 04:32:06 75° WNW 04:32:12 75° W
Cosmos 1934 Rocket 4.2 04:27:09 10° NNW 04:32:20 53° NW 04:32:20 53° NW
IRS-1C Rocket 4.4 04:28:45 10° NNE 04:34:01 65° ESE 04:35:36 44° SSE
Resurs 1-4 Rocket 3.1 04:30:39 10° N 04:34:07 34° NNW 04:34:07 34° NNW
Cosmos 1605 Rocket 3.8 04:30:09 10° N 04:36:19 81° W 04:39:10 34° S
BREEZE-M DEB (TANK) 3.4 04:41:55 59° SSE 04:41:57 59° SSE 04:44:48 10° ENE
PAYLOAD B 4.4 04:40:29 10° NNE 04:46:00 70° ESE 04:49:09 26° S
Cosmos 2082 3.6 04:46:50 55° SSW 04:48:09 90° WNW 04:53:48 10° NNE
NOSS 3-2 (A) 3.9 04:42:32 10° NW 04:50:01 67° WSW 04:58:00 10° SSE
Cosmos 1025 Rocket 3.0 04:51:03 63° SSE 04:51:42 78° E 04:56:02 10° N
CZ-4B R/B 3.3 04:47:32 10° NNE 04:51:56 71° ESE 04:53:24 42° S
Cosmos 923 Rocket 4.0 04:47:12 10° NNW 04:54:41 34° S 04:57:43 10° S
Lacrosse 5 rocket 3.3 04:53:31 21° NNW 04:53:32 21° NNW 04:57:00 10° NNE
Cosmos 2333 Rocket 2.2 04:49:12 10° NNW 04:54:47 57° WSW 05:00:18 10° S
BREEZE-M DEB (TANK) 3.6 04:58:54 23° N 04:59:26 25° NNE 05:01:50 10° E
Okean O Rocket 1.4 04:55:47 10° N 05:00:10 69° WNW 05:00:24 67° W
DELTA 2 R/B (1) 4.3 05:01:53 34° SSW 05:03:32 43° SSE 05:08:48 10° E
Cosmos 1606 Rocket 3.4 05:01:22 10° N 05:05:46 89° E 05:10:06 10° S
Okean 2 3.8 05:03:14 17° S 05:06:19 62° E 05:10:25 10° NNE
Meteor 1-19 Rocket 4.1 05:04:57 29° SSW 05:07:57 71° W 05:13:34 10° N
USA 215 4.3 05:05:04 10° S 05:08:45 24° SSW 05:08:45 24° SSW
Cosmos 2061 Rocket 4.2 05:04:31 10° N 05:10:51 75° E 05:17:12 10° SSE
Delta 2 Rocket 4.2 05:13:34 30° S 05:13:34 30° S 05:16:37 10° ESE
Cosmos 2100 Rocket 4.0 05:08:03 10° N 05:14:19 87° E 05:20:36 10° S
Cosmos 1802 Rocket 4.2 05:08:14 10° N 05:14:25 70° E 05:20:31 10° SSE
Cosmos 1898 Rocket 4.0 05:09:41 10° S 05:14:55 61° ESE 05:20:09 10° NNE
Cosmos 1726 Rocket 3.4 05:12:24 10° N 05:16:50 82° W 05:21:10 10° S
CZ-4B R/B 3.1 05:11:32 10° N 05:16:54 68° WNW 05:20:48 20° SSW
CZ-2C R/B 3.9 05:17:20 34° SW 05:18:41 44° W 05:23:08 10° NNW
Cosmos 2237 Rocket 2.4 05:14:14 10° NW 05:19:33 43° WSW 05:24:48 10° S
Cosmos 1666 2.5 05:15:41 10° N 05:19:34 79° W 05:23:23 10° S
Lacrosse 5 2.1 05:18:00 38° W 05:19:38 56° NW 05:24:37 10° NE
Meteor 2-4 Rocket 3.7 05:17:28 10° SSW 05:23:16 73° W 05:29:13 10° N
Tiangong 1 0.8 05:23:36 78° W 05:23:46 87° N 05:26:49 10° E
ATLAS 5 CENTAUR R/B 2.6 05:20:07 10° NW 05:25:56 48° WSW 05:32:08 10° S
CENTAUR R/B 3.5 05:18:35 10° NNW 05:26:19 64° NE 05:34:33 10° SE
Cosmos 292 Rocket 3.7 05:22:21 10° NNW 05:27:13 70° WSW 05:32:01 10° S
Meteor 1-23 Rocket 4.1 05:21:46 10° SSW 05:27:22 74° W 05:33:05 10° N
ADEOS Rocket 3.2 05:20:13 10° NNE 05:27:27 79° WNW 05:33:55 10° SSW
Cosmos 220 Rocket 4.4 05:27:01 36° W 05:27:38 38° WNW 05:31:36 10° N
NOSS 3-2 (C) 4.2 05:20:38 10° NW 05:27:52 49° WSW 05:35:34 10° S
Cosmos 1892 Rocket 3.5 05:24:41 15° SSW 05:28:22 69° W 05:32:51 10° N
Cosmos 1937 Rocket 4.1 05:23:54 10° S 05:29:00 58° ESE 05:34:11 10° NNE
ADEOS II 2.1 05:27:50 10° NNE 05:33:08 88° ESE 05:38:24 10° SSW
Cosmos 1980 4.4 05:28:17 10° NW 05:33:10 31° WSW 05:38:04 10° SSW
PSLV R/B 3.4 05:30:43 10° N 05:35:03 72° WNW 05:39:19 10° SSW
SL-16 R/B 2.1 05:33:38 10° NNW 05:39:18 69° WSW 05:44:55 10° SSE
Meteor 2-9 Rocket 4.3 05:36:50 10° NNW 05:42:20 55° W 05:47:56 10° S
OE (NEXTSAT) 4.3 05:41:19 26° WNW 05:43:15 82° SSW 05:46:52 10° ESE
Meteor PRIRODA 3.5 05:42:31 10° N 05:46:16 77° WNW 05:49:57 10° SSW
RESURS DK-1 3.3 05:46:01 23° W 05:47:26 29° WNW 05:51:07 10° N
Cosmos 2228 3.0 05:44:12 10° NNW 05:48:35 69° W 05:52:55 10° S
CZ-2D R/B 4.1 05:48:24 10° NW 05:48:58 10° WNW 05:49:09 10° WNW
Cosmos 2016 Rocket 4.0 05:43:38 10° N 05:49:59 75° W 05:56:14 10° S
Cosmos 1680 Rocket 4.5 05:45:59 10° NW 05:50:08 24° W 05:54:15 10° SSW
NOSS 3-4 (A) 4.3 05:48:17 18° W 05:52:14 35° NW 05:58:12 10° NNE
NOSS 3-4 (C) 4.3 05:48:21 18° W 05:52:19 35° NW 05:58:19 10° NNE
Cosmos 2227 Rocket 3.2 05:49:37 19° W 05:52:28 28° NW 05:57:17 10° N
OPS 6432 4.4 05:49:35 11° SSW 05:52:55 76° ESE 05:56:00 10° NE
Cosmos 1346 Rocket 3.6 05:51:14 19° WSW 05:53:18 30° WNW 05:56:51 10° N
Cosmos 2173 Rocket 4.1 05:49:46 10° NNW 05:55:36 48° W 06:01:26 10° SSW
USA 129 1.1 05:54:16 10° S 05:56:13 74° W 05:58:02 10° NNW
SL-08 R/B 4.5 05:51:29 10° N 05:57:43 78° W 06:04:01 10° S
Cosmos 2297 Rocket 3.0 05:57:49 15° WSW 06:01:44 32° NW 06:06:46 10° N
Okean-O 2.9 05:59:09 10° N 06:03:24 45° WNW 06:07:37 10° SW
Cosmos 1459 Rocket 4.4 05:57:57 10° NNW 06:03:52 42° W 06:09:43 10° SSW
Cosmos 2058 Rocket 3.8 06:03:45 10° NNW 06:07:32 29° W 06:11:19 10° SSW
Cosmos 2123 Rocket 3.9 06:01:25 10° S 06:07:35 80° W 06:13:48 10° N
Cosmos 2298 Rocket 4.5 06:06:34 10° SW 06:11:33 41° WNW 06:16:34 10° N
NOSS 8 (A) 4.4 06:09:44 10° SW 06:13:01 63° NW 06:16:32 10° NNE
SL-24 R/B 4.2 06:08:53 10° NNE 06:13:18 75° ESE 06:17:10 10° S
CZ-4B R/B 3.8 06:10:17 10° N 06:14:11 60° WNW 06:17:54 10° SSW
Aureole 2 Rocket 3.2 06:15:47 10° NW 06:18:47 28° WSW 06:21:32 10° SSW
EXPRESS MD2 3.8 06:16:42 10° WNW 06:20:11 71° SSW 06:27:20 10° SE
COSMO-SKYMED 1 2.6 06:16:38 10° SSE 06:20:59 88° ENE 06:25:20 10° NNW
Cosmos 1943 4.4 06:17:27 10° NNW 06:22:52 47° ENE 06:28:16 10° SE
Cosmos 1603 3.7 06:20:53 10° NNW 06:26:37 75° WSW 06:32:17 10° SSE
Cosmos 1825 Rocket 4.4 06:22:35 10° S 06:26:54 57° E 06:31:13 10° NNE
